Location: Aulnoy
(48.8410°N, 3.0967°E)
Time: 19:47:06
(UTC+00:00)

Radarsat Rocket - Pass Details

Date: 09 February 2023
Orbit: 933 x 1491 km, 100.6° (Epoch: 25 March)

Event Time Altitude Azimuth Distance (km) Brightness Sun altitude
Rises 17:35:17 0° 161° (SSE) 3,687 7.0 -6.7°
Reaches altitude 10° 17:37:37 10° 161° (SSE) 2,789 6.4 -7.0°
Maximum altitude 17:43:54 88° 251° (WSW) 1,105 4.3 -8.0°
Drops below altitude 10° 17:51:04 10° 342° (NNW) 3,166 6.8 -9.2°
Sets 17:53:52 0° 343° (NNW) 4,216 7.4 -9.6°
